Stations météo

réclame
Mon MeteoGroup
Biscarosse, France (7503): Température de l'air & dewpoint: 06.12.2017 05:00:00 - 12.12.2017 05:00:00 (CET)Biscarosse, France (7503): Température de l'air 5cm: 06.12.2017 05:00:00 - 12.12.2017 05:00:00 (CET)Biscarosse, France (7503): Température de l'air -20cm & Température de l'air -100cm: 06.12.2017 05:00:00 - 12.12.2017 05:00:00 (CET)Biscarosse, France (7503): Vitesse du vent & gusts: 06.12.2017 05:00:00 - 12.12.2017 05:00:00 (CET)Biscarosse, France (7503): Direction du vent: 06.12.2017 05:00:00 - 12.12.2017 05:00:00 (CET)Biscarosse, France (7503): reduced air pressure: 06.12.2017 05:00:00 - 12.12.2017 05:00:00 (CET)Biscarosse, France (7503): visibility: 06.12.2017 05:00:00 - 12.12.2017 05:00:00 (CET)Biscarosse, France (7503): Ensoleillement: 06.12.2017 05:00:00 - 12.12.2017 05:00:00 (CET)Biscarosse, France (7503): Quantités de précipitations: 06.12.2017 05:00:00 - 12.12.2017 05:00:00 (CET)
Date & Time tt [°C] td [°C] tt 5cm [°C] tt -20cm [°C] tt -100cm [°C] ff [km/h] ff [knt] fx [km/h] fx [knt] dd ppp [hPa] vv [km] sd [min] rr [mm]
12.12.2017 05:00:00 5,3 3,9 4,6 8,9 11,3 6 4 10 5 NNE 1010,2 20 0 0,0
12.12.2017 04:00:00 5,6 4,2 5,0 9,0 11,3 5 3 15 8 NNE 1008,7 18 0 0,0
12.12.2017 03:00:00 5,7 4,3 5,1 9,1 11,3 5 3 9 5 NE 1007,4 20 0 0,0
12.12.2017 02:00:00 5,7 4,2 5,2 9,2 11,3 8 4 14 8 NNE 1006,3 20 0 0,0
12.12.2017 01:00:00 6,0 4,5 5,5 9,4 11,3 9 5 22 12 NNE 1004,8 20 0 0,0
12.12.2017 00:00:00 7,1 5,4 6,4 9,5 11,3 13 7 52 28 NNE 1003,1 18 0 0,8
11.12.2017 23:00:00 9,0 5,6 7,2 9,6 11,3 43 23 59 32 NW 1000,9 12 0 0,0
11.12.2017 22:00:00 8,8 5,7 7,0 9,7 11,3 33 18 61 33 NW 999,5 15 0 0,0
11.12.2017 21:00:00 9,5 5,7 7,0 9,8 11,3 37 20 54 29 WNW 997,9 15 0 0,0
11.12.2017 20:00:00 8,6 5,7 6,8 9,9 11,3 45 24 68 37 WNW 996,6 8 0 0,4
11.12.2017 19:00:00 10,1 6,4 7,9 10,0 11,2 37 20 58 31 WNW 994,6 13 0 0,0
11.12.2017 18:00:00 9,7 6,8 8,0 10,1 11,2 43 23 62 33 WNW 992,8 11 0 0,0
11.12.2017 17:00:00 10,0 6,7 8,2 10,1 11,2 42 23 69 37 WNW 991,2 13 19 0,4
11.12.2017 16:00:00 9,6 7,5 7,9 10,2 11,2 49 26 80 43 W 989,6 9 0 1,2
11.12.2017 15:00:00 8,7 7,3 7,7 10,2 11,2 51 28 81 44 W 988,5 3,6 0 1,6
11.12.2017 14:00:00 9,0 7,4 8,0 10,1 11,1 44 24 91 49 W 988,0 3,7 3 0,8
11.12.2017 13:00:00 11,6 7,3 10,1 10,1 11,1 56 30 76 41 WSW 987,5 12 14 0,0
11.12.2017 12:00:00 11,0 6,5 8,8 10,1 11,1 61 33 89 48 WSW 987,3 11 15 0,0
11.12.2017 11:00:00 10,7 7,4 5,6 10,3 11,1 58 31 77 42 WSW 986,9 9 2 2,9
11.12.2017 10:00:00 11,4 6,7 10,0 10,4 11,1 57 31 74 40 WSW 986,1 11 0 0,0
11.12.2017 09:00:00 11,7 6,8 10,9 10,5 11,1 55 30 69 38 WSW 985,2 12 0 0,0
11.12.2017 08:00:00 11,8 7,1 9,7 10,6 11,0 51 28 66 36 W 984,8 10 0 0,0
11.12.2017 07:00:00 11,9 6,6 10,4 10,7 11,0 53 29 74 40 W 983,7 12 0 0,0
11.12.2017 06:00:00 11,7 7,6 9,6 10,8 11,0 53 29 78 42 W 982,8 9 0 0,0
11.12.2017 05:00:00 11,3 8,3 9,3 10,8 11,0 56 31 81 44 W 982,5 8 0 0,4
11.12.2017 04:00:00 10,3 8,4 9,1 10,9 11,0 53 29 84 45 WSW 982,1 9 0 1,4
11.12.2017 03:00:00 10,7 9,6 9,6 11,0 11,0 59 32 82 44 WSW 981,7 3,6 0 2,3
11.12.2017 02:00:00 11,4 10,3 10,1 11,0 11,0 50 27 80 43 W 981,0 3,4 0 4,0
11.12.2017 01:00:00 12,0 10,6 10,9 11,0 10,9 29 15 53 29 SE 979,4 18 0 0,6
11.12.2017 00:00:00 11,7 10,8 10,9 11,1 11,0 26 14 48 26 SE 981,1 20 0 0,2
10.12.2017 23:00:00 11,2 10,7 10,9 11,1 11,0 11 6 31 17 SE 983,5 14 0 2,0
10.12.2017 22:00:00 11,6 11,1 11,3 11,1 11,0 15 8 42 23 S 987,0 8 0 2,9
10.12.2017 21:00:00 12,0 11,4 11,7 11,1 11,0 25 13 50 27 S 989,0 9 0 1,4
10.12.2017 20:00:00 12,3 11,7 10,9 11,1 11,0 28 15 47 25 SW 991,9 2,1 0 3,6
10.12.2017 19:00:00 11,6 10,7 10,9 11,2 11,0 35 19 54 29 WSW 992,8 8 0 3,5
10.12.2017 18:00:00 12,4 11,6 11,5 11,1 11,0 35 19 58 31 WSW 995,1 3,3 0 1,8
10.12.2017 17:00:00 12,1 11,3 11,5 11,1 11,0 31 17 61 33 WSW 996,4 4,0 0 1,4
10.12.2017 16:00:00 12,8 12,2 12,3 11,0 11,0 32 17 55 30 WSW 997,7 3,1 0 0,8
10.12.2017 15:00:00 13,3 12,5 12,8 10,9 11,1 40 22 58 32 WSW 999,0 3,0 0 0,6
10.12.2017 14:00:00 13,3 12,7 12,6 10,8 11,0 36 19 69 38 WSW 1000,5 4,6 0 1,4
10.12.2017 13:00:00 13,0 12,2 12,7 10,7 11,1 54 29 73 39 WSW 1001,3 2,6 0 2,6
10.12.2017 12:00:00 13,1 12,3 12,6 10,6 11,1 51 28 79 42 SW 1001,5 6 0 2,0
10.12.2017 11:00:00 13,4 12,6 12,5 10,5 11,1 63 34 79 42 SW 1001,9 3,3 0 2,1
10.12.2017 10:00:00 13,2 12,3 12,2 10,4 11,1 54 29 72 39 SW 1002,8 4,0 0 1,0
10.12.2017 09:00:00 12,8 11,9 12,2 10,3 11,1 47 26 67 36 SW 1003,6 2,5 0 2,6
10.12.2017 08:00:00 13,7 12,8 13,0 10,1 11,0 58 31 80 43 WSW 1004,3 2,6 0 0,6
10.12.2017 07:00:00 14,3 12,8 13,6 9,9 11,0 48 26 76 41 WSW 1005,5 7 0 0,0
10.12.2017 06:00:00 14,3 13,2 13,6 9,8 11,1 56 31 81 44 W 1006,3 6 0 0,0
10.12.2017 05:00:00 14,1 13,6 13,6 9,5 11,1 59 32 75 41 W 1007,0 4,5 0 0,0
10.12.2017 04:00:00 14,1 13,6 13,7 9,2 11,1 57 31 74 40 W 1007,7 3,1 0 0,6
10.12.2017 03:00:00 14,1 13,6 13,6 8,8 11,1 55 30 82 44 W 1008,1 1,9 0 1,4
10.12.2017 02:00:00 14,4 13,9 13,8 8,5 11,1 55 30 72 39 W 1008,8 4,2 0 0,8
10.12.2017 01:00:00 14,2 13,9 13,7 8,2 11,0 49 26 63 34 W 1009,5 2,9 0 1,2
10.12.2017 00:00:00 14,1 13,8 7,0 8,2 11,1 48 26 59 32 W 1010,3 6 0 0,6
09.12.2017 23:00:00 7,1 6,5 6,0 8,2 11,0 11 6 37 20 SE 1011,5 3,0 0 2,0
09.12.2017 22:00:00 6,2 5,3 5,7 8,3 11,0 23 12 41 22 SE 1012,7 6 0 0,8
09.12.2017 21:00:00 6,2 4,7 5,7 8,4 11,0 18 10 37 20 SE 1014,6 14 0 0,4
09.12.2017 20:00:00 7,2 4,0 6,6 8,4 11,0 14 8 27 15 SE 1016,0 20 0 0,0
09.12.2017 19:00:00 7,4 4,2 6,5 8,5 11,0 12 7 27 15 SE 1017,1 20 0 0,0
09.12.2017 18:00:00 7,5 4,6 6,7 8,5 11,0 16 8 28 15 SE 1018,3 20 0 0,0
09.12.2017 17:00:00 7,8 4,2 7,6 8,4 11,0 12 6 - - SE 1019,7 20 0 0,0
09.12.2017 16:00:00 8,3 4,3 8,4 8,3 11,0 11 6 22 12 SSE 1021,0 20 0 0,0
09.12.2017 15:00:00 8,5 4,1 9,3 8,1 11,0 12 7 26 14 SSE 1022,0 20 3 0,0
09.12.2017 14:00:00 9,4 4,6 11,0 7,9 11,0 11 6 20 11 S 1023,5 20 39 0,0
09.12.2017 13:00:00 8,7 3,9 10,9 7,7 11,0 11 6 25 13 SSE 1024,7 20 56 0,0
09.12.2017 12:00:00 8,0 4,2 8,1 7,6 11,0 12 6 22 12 SSE 1025,4 20 48 0,0
09.12.2017 11:00:00 6,6 4,3 6,2 7,6 11,0 9 5 20 11 SE 1026,5 20 26 0,0
09.12.2017 10:00:00 5,5 3,7 4,3 7,6 11,0 10 5 17 9 SE 1026,7 20 5 0,0
09.12.2017 09:00:00 4,4 3,5 3,7 7,7 11,0 8 5 15 8 ESE 1026,8 20 0 0,0
09.12.2017 08:00:00 4,1 3,4 2,9 7,9 11,0 8 5 16 8 E 1026,7 20 0 0,0
09.12.2017 07:00:00 4,1 3,4 3,1 8,0 10,9 6 4 13 7 ESE 1026,3 20 0 0,0
09.12.2017 06:00:00 4,3 3,3 3,5 8,2 10,9 10 5 13 7 ESE 1026,5 18 0 0,0
09.12.2017 05:00:00 4,8 3,8 3,7 8,4 10,9 6 4 11 6 ESE 1026,6 20 0 0,0
09.12.2017 04:00:00 4,9 3,7 3,8 8,5 10,9 7 4 24 13 ESE 1026,8 18 0 0,2
09.12.2017 03:00:00 6,0 4,6 5,0 8,6 10,9 11 6 27 14 NNE 1027,4 14 0 0,0
09.12.2017 02:00:00 6,2 4,5 5,6 8,7 10,9 5 3 32 18 SE 1027,2 20 0 0,0
09.12.2017 01:00:00 6,9 3,7 6,3 8,8 10,9 10 5 37 20 ENE 1027,4 20 0 0,0
09.12.2017 00:00:00 7,9 4,1 5,9 9,0 10,9 31 17 42 23 NNW 1027,6 19 0 0,0
08.12.2017 23:00:00 - - - - - - - - - - - - - -
08.12.2017 22:00:00 - - - - - - - - - - - - - -
08.12.2017 21:00:00 - - - - - - - - - - - - - -
08.12.2017 20:00:00 - - - - - - - - - - - - - -
08.12.2017 19:00:00 - - - - - - - - - - - - - -
08.12.2017 18:00:00 - - - - - - - - - - - - - -
08.12.2017 17:00:00 - - - - - - - - - - - - - -
08.12.2017 16:00:00 - - - - - - - - - - - - - -
08.12.2017 15:00:00 - - - - - - - - - - - - - -
08.12.2017 14:00:00 - - - - - - - - - - - - - -
08.12.2017 13:00:00 - - - - - - - - - - - - - -
08.12.2017 12:00:00 - - - - - - - - - - - - - -
08.12.2017 11:00:00 - - - - - - - - - - - - - -
08.12.2017 10:00:00 - - - - - - - - - - - - - -
08.12.2017 09:00:00 - - - - - - - - - - - - - -
08.12.2017 08:00:00 - - - - - - - - - - - - - -
08.12.2017 07:00:00 - - - - - - - - - - - - - -
08.12.2017 06:00:00 - - - - - - - - - - - - - -
08.12.2017 05:00:00 - - - - - - - - - - - - - -
08.12.2017 04:00:00 - - - - - - - - - - - - - -
08.12.2017 03:00:00 - - - - - - - - - - - - - -
08.12.2017 02:00:00 - - - - - - - - - - - - - -
08.12.2017 01:00:00 - - - - - - - - - - - - - -
08.12.2017 00:00:00 12,9 12,3 12,2 8,2 10,7 40 21 52 28 WSW 1022,6 5 0 0,4
07.12.2017 23:00:00 12,7 11,9 11,7 8,0 10,7 39 21 55 30 SW 1022,8 3,8 0 0,0
07.12.2017 22:00:00 12,2 11,1 - - - 44 24 55 30 WSW 1023,3 4,3 - -
07.12.2017 21:00:00 12,9 11,5 - - - 35 19 44 24 SW 1023,3 5 - 0,2
07.12.2017 20:00:00 12,5 11,6 10,9 7,4 10,7 28 15 38 21 WSW 1023,6 9 0 1,0
07.12.2017 19:00:00 11,6 10,5 10,3 7,2 10,7 19 10 48 26 SSW 1023,8 4,9 0 3,6
07.12.2017 18:00:00 12,6 9,1 10,9 7,0 10,7 29 16 36 20 SSW 1023,9 14 0 0,0
07.12.2017 17:00:00 12,2 8,8 10,9 6,7 10,8 25 14 36 19 SSW 1024,0 11 0 0,0
07.12.2017 16:00:00 11,5 9,6 10,4 6,4 10,8 16 8 34 19 S 1024,3 15 2 0,4
07.12.2017 15:00:00 12,5 8,4 11,9 6,0 10,8 34 18 40 22 SW 1024,8 14 0 0,0
07.12.2017 14:00:00 12,3 8,6 12,9 5,6 10,8 21 11 33 18 S 1025,5 20 0 0,0
07.12.2017 13:00:00 11,9 7,0 10,7 5,2 10,8 20 11 33 18 S 1026,2 20 14 0,0
07.12.2017 12:00:00 9,8 5,2 6,8 5,0 10,8 14 7 23 12 S 1027,0 20 8 0,0
07.12.2017 11:00:00 6,1 3,6 3,7 4,9 10,8 11 6 20 11 SE 1027,8 20 0 0,0
07.12.2017 10:00:00 3,4 2,4 2,0 4,9 10,8 14 8 21 12 SE 1027,7 15 0 0,0
07.12.2017 09:00:00 1,9 1,6 1,5 4,9 10,8 13 7 21 11 ESE 1027,8 15 0 0,0
07.12.2017 08:00:00 1,5 1,4 0,9 4,9 10,8 12 6 22 12 ESE 1028,1 15 0 0,0
07.12.2017 07:00:00 0,8 0,7 0,4 5,0 10,9 12 6 20 11 ESE 1028,2 9 0 0,0
07.12.2017 06:00:00 0,5 0,4 0,2 5,1 10,9 14 7 23 13 E 1028,1 7 0 0,0
07.12.2017 05:00:00 0,4 0,3 0,2 5,2 10,9 12 6 20 11 ESE 1028,8 1,4 0 0,0
07.12.2017 04:00:00 0,3 0,2 -0,1 5,3 10,9 13 7 26 14 ESE 1029,1 1,4 0 0,0
07.12.2017 03:00:00 0,2 0,1 -0,3 5,4 10,9 15 8 24 13 ESE 1029,5 5 0 0,0
07.12.2017 02:00:00 -0,2 -0,3 -0,3 5,5 10,9 14 7 24 13 ESE 1029,8 0,8 0 0,0
07.12.2017 01:00:00 0,2 0,1 0,2 5,6 10,9 14 8 24 13 ESE 1030,3 0,5 0 0,0
07.12.2017 00:00:00 0,7 0,4 0,8 5,6 10,9 15 8 24 13 ESE 1030,8 0,3 0 0,0
06.12.2017 23:00:00 1,0 0,7 1,1 5,7 10,9 13 7 22 12 E 1031,1 0,3 0 0,0
06.12.2017 22:00:00 1,1 0,8 1,2 5,7 10,9 13 7 22 12 E 1031,3 0,4 0 0,0
06.12.2017 21:00:00 1,4 1,0 1,5 5,7 11,0 6 3 11 6 ESE 1031,8 0,2 0 0,0
06.12.2017 20:00:00 1,6 1,2 1,6 5,7 11,0 8 4 24 13 E 1031,6 0,4 0 0,0
06.12.2017 19:00:00 1,5 0,9 1,6 5,8 11,0 11 6 26 14 E 1031,7 0,5 0 0,0
06.12.2017 18:00:00 1,7 1,0 1,7 5,7 11,0 15 8 27 14 E 1031,9 1,1 0 0,0
06.12.2017 17:00:00 2,2 1,0 2,6 5,6 11,0 14 7 28 15 E 1031,8 11 40 0,0
06.12.2017 16:00:00 3,9 1,3 5,6 5,5 11,0 12 7 24 13 E 1031,6 20 60 0,0
06.12.2017 15:00:00 4,5 1,3 5,6 5,3 11,0 15 8 21 11 E 1031,9 20 60 0,0
06.12.2017 14:00:00 4,6 0,9 8,7 5,2 11,1 14 8 23 12 E 1032,4 20 60 0,0
06.12.2017 13:00:00 5,7 2,2 8,2 5,0 11,1 12 6 24 13 E 1032,9 20 60 0,0
06.12.2017 12:00:00 3,8 1,3 5,3 4,9 11,1 14 8 26 14 E 1033,7 20 60 0,0
06.12.2017 11:00:00 2,3 0,5 1,3 5,0 11,1 6 3 23 12 ESE 1034,2 20 60 0,0
06.12.2017 10:00:00 0,5 -0,5 -1,3 5,1 11,0 16 8 24 13 E 1034,2 25 60 0,0
06.12.2017 09:00:00 -0,9 -1,5 -1,5 5,2 11,1 16 8 23 13 E 1034,3 20 8 0,0
06.12.2017 08:00:00 -0,5 -1,1 -1,2 5,4 11,0 14 8 22 12 E 1034,2 25 0 0,0
06.12.2017 07:00:00 0,2 -0,2 -0,7 5,6 11,1 12 7 19 11 E 1034,3 17 0 0,0
06.12.2017 06:00:00 0,3 -0,1 -0,5 5,7 11,0 12 7 23 12 ESE 1034,5 14 0 0,0
06.12.2017 05:00:00 0,3 0,0 -0,8 5,9 11,0 15 8 24 13 ESE 1034,7 11 0 0,0

tt = Température de l'air
td = dewpoint
tt 5cm = Température de l'air 5cm
tt -20cm = Température de l'air -20cm
tt -100cm = Température de l'air -100cm
ff = Vitesse du vent
fx = gusts
dd = Direction du vent
ppp = reduced air pressure
vv = visibility
sd = Ensoleillement
rr = Quantités de précipitations

stations d'obs. à proximité